Flag for Denmark Weather past 2 weeks in Copenhagen, Denmark

Now
43 °F

Clear.


Feels Like: 39 °F
Forecast: 41 / 55 °F
Wind: 6 mph from Southwest

Location: Koebenhavn-Kastrup Airport


UV Index: 3 (Moderate)

Visibility: 10 mi


Pressure: 30.36 "Hg

Humidity: 76%

Dew point: 36 °F

Location of CopenhagenLocation

Historic Weather in Copenhagen

°F

Copenhagen temperature yesterday

Maximum temperature yesterday: 54 °F (at 1:20 PM)
Minimum temperature yesterday: 36 °F (at 5:20 AM)
Average temperature yesterday: 46 °F

Past Weeks' High & Low Weather Summary

 TemperatureHumidityPressure
High59 °F (Apr 7, 2:20 PM)100% (Apr 5, 6:20 PM)30.42 "Hg (Apr 5, 6:20 PM)
Low34 °F (Apr 12, 5:50 AM)38% (Apr 16, 12:50 PM)29.50 "Hg (Apr 14, 5:50 AM)
Average45 °F79%29.94 "Hg
* Reported Apr 1 10:20 PM — Apr 16 10:20 PM, Copenhagen, Weather by CustomWeather, © 2014

Note: Actual official high and low records may vary slightly from our data, if they occured in-between our weather recording intervals... More about our weather records

Advertising

Historic Weather Conditions — Data for Previous 24 hours

 ConditionsComfort  
Time TempWeatherWind HumidityBarometerVisibility
10:20 PM
Apr 16
43 °FClear.6 mph81%30.36 "Hg10 mi
9:50 PM45 °FClear.5 mph71%30.36 "Hg10 mi
9:20 PM45 °FClear.3 mph76%30.36 "Hg10 mi
8:50 PM45 °FSunny.5 mph76%30.36 "Hg10 mi
8:20 PM45 °FSunny.8 mph71%30.36 "Hg10 mi
7:50 PM48 °FSunny.10 mph58%30.36 "Hg10 mi
7:20 PM48 °FSunny.9 mph54%30.36 "Hg10 mi
6:50 PM50 °FSunny.10 mph43%30.36 "Hg10 mi
6:20 PM52 °FSunny.9 mph38%30.36 "Hg10 mi
5:50 PM52 °FSunny.12 mph38%30.36 "Hg10 mi
5:20 PM52 °FSunny.13 mph41%30.39 "Hg10 mi
4:50 PM52 °FSunny.10 mph41%30.39 "Hg10 mi
4:20 PM52 °FSunny.10 mph41%30.39 "Hg10 mi
3:50 PM52 °FSunny.9 mph50%30.39 "Hg10 mi
3:20 PM54 °FSunny.10 mph38%30.39 "Hg10 mi
2:50 PM52 °FPassing clouds.8 mph41%30.42 "HgN/A
2:20 PM54 °FScattered clouds.7 mph38%30.42 "HgN/A
1:50 PM52 °FScattered clouds.7 mph41%30.42 "HgN/A
1:20 PM54 °FScattered clouds.7 mph41%30.42 "HgN/A
12:50 PM52 °FScattered clouds.5 mph38%30.42 "HgN/A
12:20 PM52 °FScattered clouds.2 mph41%30.42 "HgN/A
11:50 AM52 °FScattered clouds.2 mph44%30.42 "HgN/A
11:20 AM52 °FScattered clouds.6 mph44%30.42 "HgN/A
10:50 AM50 °FPassing clouds.5 mph40%30.42 "HgN/A
10:20 AM50 °FSunny.3 mph40%30.42 "Hg10 mi
9:50 AM48 °FSunny.3 mph50%30.42 "Hg10 mi
9:20 AM46 °FSunny.6 mph57%30.42 "Hg10 mi
8:50 AM46 °FSunny.7 mph66%30.42 "Hg10 mi
8:20 AM46 °FSunny.6 mph62%30.42 "Hg10 mi
7:50 AM43 °FSunny.3 mph81%30.42 "Hg10 mi
7:20 AM37 °FSunny.3 mph81%30.39 "Hg10 mi
6:50 AM36 °FClear.6 mph81%30.39 "Hg10 mi
6:20 AM37 °FClear.6 mph75%30.39 "Hg10 mi
5:50 AM36 °FClear.6 mph81%30.39 "Hg10 mi
5:20 AM36 °FClear.3 mph81%30.39 "Hg10 mi
4:50 AM41 °FClear.8 mph70%30.36 "Hg10 mi
4:20 AM39 °FClear.8 mph70%30.36 "Hg10 mi
3:50 AM41 °FClear.8 mph66%30.36 "Hg10 mi
3:20 AM39 °FClear.8 mph70%30.36 "Hg10 mi
2:50 AM39 °FClear.7 mph70%30.36 "Hg10 mi
12:50 AM43 °FClear.9 mph71%30.33 "Hg10 mi
12:20 AM45 °FClear.9 mph66%30.30 "Hg10 mi
Weather by CustomWeather, © 2014

See weather overview